QPF
0.00 0.01 0.01 0.01 0.01 0.01 0.02 0.02 0.04 0.03 0.02 0.02 0.02 0.03 0.04 0.07 0.06 0.04 0.01 0.01 0.01 0.02 0.03 0.03 0.05 0.07 0.08 0.09 0.08 0.10 0.08 0.05 0.02 0.02 0.03 0.05 0.06 0.06
0.00 0.01 0.01 0.01 0.01 0.01 0.01 0.01 0.02 0.04 0.04 0.03 0.03 0.03 0.06 0.04 0.04 0.02 0.01 0.01 0.02 0.02 0.02 0.02 0.03 0.04 0.06 0.08 0.08 0.08 0.08 0.06 0.03 0.03 0.03 0.04 0.05 0.05
0.01 0.01 0.01 0.01 0.01 0.01 0.02 0.01 0.01 0.02 0.04 0.03 0.02 0.05 0.05 0.03 0.02 0.03 0.02 0.02 0.02 0.01 0.01 0.01 0.02 0.02 0.04 0.06 0.07 0.07 0.06 0.05 0.03 0.02 0.03 0.03 0.04 0.04
0.02 0.01 0.01 0.01 0.01 0.01 0.01 0.02 0.02 0.02 0.03 0.02 0.02 0.03 0.03 0.03 0.02 0.03 0.03 0.02 0.02 0.01 0.01 0.01 0.02 0.03 0.04 0.05 0.07 0.08 0.07 0.04 0.03 0.01 0.02 0.02 0.02 0.03
0.01 0.02 0.01 0.02 0.01 0.01 0.02 0.02 0.02 0.02 0.02 0.02 0.02 0.02 0.03 0.02 0.03 0.03 0.03 0.04 0.02 0.02 0.02 0.02 0.02 0.02 0.03 0.04 0.04 0.04 0.04 0.02 0.01 0.01 0.01 0.01 0.01 0.01
0.01 0.01 0.01 0.01 0.01 0.01 0.01 0.01 0.01 0.01 0.02 0.02 0.02 0.03 0.03 0.03 0.03 0.03 0.03 0.05 0.03 0.02 0.02 0.01 0.01 0.01 0.01 0.02 0.01 0.02 0.02 0.01 0.01 0.01 0.01 0.01 0.01 0.01
0.00 0.00 0.00 0.00 0.00 0.00 0.00 0.01 0.01 0.01 0.01 0.01 0.01 0.02 0.03 0.03 0.03 0.04 0.04 0.05 0.05 0.03 0.02 0.01 0.01 0.00 0.00 0.01 0.01 0.01 0.01 0.01 0.01 0.01 0.01 0.01 0.02 0.02
0.00 0.00 0.00 0.00 0.00 0.00 0.00 0.01 0.01 0.00 0.00 0.00 0.01 0.01 0.01 0.02 0.02 0.02 0.02 0.02 0.02 0.02 0.01 0.01 0.01 0.01 0.01 0.01 0.01 0.01 0.01 0.00 0.00 0.00 0.00 0.00 0.01 0.02
0.00 0.01 0.01 0.00 0.00 0.00 0.00 0.00 0.00 0.00 0.00 0.00 0.00 0.00 0.01 0.01 0.01 0.01 0.01 0.02 0.02 0.01 0.01 0.00 0.00 0.01 0.00 0.00 0.01 0.01 0.00 0.00 0.00 0.00 0.00 0.00 0.00 0.01
0.00 0.01 0.00 0.00 0.00 0.00 0.00 0.00 0.00 0.00 0.00 0.00 0.00 0.00 0.00 0.00 0.01 0.01 0.01 0.01 0.01 0.02 0.02 0.01 0.00 0.00 0.00 0.00 0.01 0.00 0.00 0.00 0.00 0.00 0.00 0.00 0.01 0.01
0.00 0.00 0.00 0.00 0.00 0.00 0.00 0.00 0.00 0.00 0.00 0.00 0.00 0.00 0.00 0.00 0.00 0.01 0.01 0.00 0.00 0.01 0.01 0.00 0.00 0.00 0.00 0.00 0.01 0.01 0.00 0.00 0.00 0.00 0.00 0.00 0.01 0.01
0.00 0.00 0.00 0.00 0.00 0.00 0.00 0.00 0.00 0.00 0.00 0.00 0.00 0.00 0.00 0.00 0.00 0.01 0.01 0.01 0.00 0.00 0.00 0.00 0.00 0.00 0.00 0.00 0.00 0.01 0.01 0.00 0.00 0.01 0.00 0.01 0.01 0.01
0.00 0.00 0.00 0.00 0.00 0.00 0.00 0.00 0.00 0.00 0.00 0.00 0.00 0.00 0.01 0.00 0.00 0.00 0.01 0.01 0.01 0.00 0.00 0.00 0.00 0.00 0.01 0.01 0.01 0.01 0.01 0.00 0.00 0.00 0.00 0.01 0.01 0.00
0.00 0.00 0.00 0.00 0.00 0.00 0.00 0.00 0.00 0.00 0.00 0.00 0.00 0.00 0.00 0.00 0.00 0.00 0.00 0.00 0.00 0.01 0.00 0.00 0.00 0.00 0.00 0.01 0.01 0.02 0.01 0.01 0.00 0.00 0.00 0.00 0.01 0.01
0.00 0.00 0.00 0.00 0.00 0.00 0.00 0.00 0.00 0.00 0.00 0.00 0.00 0.00 0.00 0.00 0.00 0.00 0.00 0.00 0.00 0.00 0.00 0.00 0.00 0.00 0.00 0.00 0.01 0.01 0.01 0.01 0.01 0.01 0.01 0.01 0.01 0.00
0.00 0.00 0.00 0.00 0.00 0.00 0.00 0.00 0.00 0.00 0.00 0.00 0.00 0.00 0.00 0.00 0.00 0.00 0.00 0.00 0.00 0.00 0.00 0.00 0.00 0.00 0.00 0.01 0.01 0.01 0.01 0.00 0.00 0.00 0.00 0.00 0.00 0.00
0.01 0.01 0.01 0.00 0.00 0.00 0.00 0.00 0.00 0.00 0.00 0.00 0.00 0.00 0.00 0.00 0.00 0.00 0.00 0.00 0.00 0.00 0.00 0.00 0.00 0.00 0.00 0.00 0.00 0.01 0.01 0.00 0.00 0.00 0.00 0.00 0.00 0.00
0.01 0.01 0.01 0.01 0.00 0.00 0.00 0.00 0.00 0.00 0.00 0.00 0.00 0.00 0.00 0.00 0.00 0.00 0.00 0.00 0.00 0.00 0.00 0.00 0.00 0.00 0.00 0.00 0.00 0.00 0.00 0.00 0.00 0.00 0.00 0.00 0.00 0.00
0.01 0.01 0.00 0.00 0.00 0.00 0.00 0.00 0.00 0.00 0.00 0.00 0.00 0.00 0.00 0.00 0.00 0.00 0.00 0.00 0.00 0.00 0.00 0.00 0.00 0.00 0.00 0.00 0.00 0.00 0.00 0.00 0.00 0.00 0.00 0.00 0.00 0.00
0.00 0.00 0.00 0.00 0.00 0.00 0.00 0.00 0.00 0.00 0.00 0.00 0.00 0.00 0.00 0.00 0.00 0.00 0.00 0.00 0.00 0.00 0.00 0.00 0.00 0.00 0.00 0.00 0.00 0.00 0.00 0.00 0.00 0.00 0.00 0.00 0.00 0.00
0.00 0.00 0.00 0.00 0.00 0.00 0.00 0.00 0.00 0.00 0.00 0.00 0.00 0.00 0.00 0.00 0.00 0.00 0.00 0.00 0.00 0.00 0.00 0.00 0.00 0.00 0.00 0.00 0.00 0.00 0.00 0.00 0.00 0.00 0.00 0.00 0.00 0.00
0.00 0.00 0.00 0.00 0.00 0.00 0.01 0.01 0.01 0.01 0.01 0.01 0.01 0.01 0.01 0.00 0.00 0.00 0.00 0.00 0.00 0.00 0.00 0.00 0.00 0.00 0.00 0.00 0.00 0.00 0.00 0.00 0.00 0.00 0.00 0.00 0.00 0.00
0.00 0.00 0.00 0.00 0.00 0.00 0.00 0.01 0.01 0.01 0.01 0.01 0.01 0.00 0.00 0.00 0.00 0.00 0.00 0.00 0.00 0.00 0.00 0.00 0.00 0.00 0.00 0.00 0.01 0.01 0.00 0.00 0.00 0.00 0.00 0.00 0.00 0.00
MSLP
1017.98 1018.15 1018.41 1018.71 1019.05 1019.37 1019.66 1019.90 1020.09 1020.24 1020.35 1020.44 1020.53 1020.62 1020.70 1020.77 1020.82 1020.84 1020.83 1020.78 1020.71 1020.62 1020.52 1020.43 1020.34 1020.28 1020.22 1020.18 1020.14 1020.11 1020.08 1020.06 1020.05 1020.06 1020.10 1020.17 1020.27 1020.39
1018.26 1018.38 1018.57 1018.82 1019.09 1019.37 1019.62 1019.85 1020.04 1020.19 1020.33 1020.46 1020.58 1020.71 1020.84 1020.95 1021.06 1021.13 1021.17 1021.19 1021.18 1021.15 1021.11 1021.08 1021.05 1021.03 1021.01 1020.99 1020.96 1020.93 1020.88 1020.83 1020.79 1020.75 1020.74 1020.75 1020.79 1020.86
1018.64 1018.72 1018.86 1019.05 1019.27 1019.50 1019.72 1019.92 1020.10 1020.26 1020.40 1020.54 1020.68 1020.83 1020.97 1021.12 1021.24 1021.35 1021.43 1021.49 1021.52 1021.55 1021.58 1021.60 1021.63 1021.67 1021.70 1021.72 1021.71 1021.69 1021.64 1021.58 1021.51 1021.44 1021.39 1021.35 1021.34 1021.36
1019.09 1019.15 1019.26 1019.41 1019.59 1019.78 1019.98 1020.15 1020.31 1020.46 1020.60 1020.74 1020.88 1021.02 1021.16 1021.30 1021.42 1021.53 1021.62 1021.69 1021.75 1021.81 1021.88 1021.95 1022.04 1022.12 1022.20 1022.26 1022.30 1022.30 1022.27 1022.21 1022.14 1022.06 1021.98 1021.92 1021.88 1021.85
1019.58 1019.63 1019.73 1019.86 1020.01 1020.18 1020.35 1020.51 1020.66 1020.79 1020.92 1021.05 1021.17 1021.29 1021.41 1021.52 1021.61 1021.69 1021.76 1021.82 1021.88 1021.95 1022.03 1022.13 1022.24 1022.37 1022.48 1022.58 1022.65 1022.69 1022.69 1022.66 1022.60 1022.53 1022.46 1022.39 1022.34 1022.30
1020.06 1020.12 1020.21 1020.33 1020.47 1020.63 1020.78 1020.92 1021.06 1021.18 1021.29 1021.40 1021.50 1021.60 1021.68 1021.75 1021.80 1021.84 1021.87 1021.90 1021.93 1021.98 1022.06 1022.16 1022.28 1022.42 1022.56 1022.69 1022.79 1022.86 1022.89 1022.89 1022.87 1022.82 1022.77 1022.73 1022.68 1022.65
1020.46 1020.53 1020.63 1020.75 1020.88 1021.03 1021.17 1021.30 1021.42 1021.53 1021.62 1021.71 1021.80 1021.86 1021.92 1021.95 1021.97 1021.97 1021.96 1021.94 1021.94 1021.96 1022.01 1022.09 1022.21 1022.34 1022.48 1022.62 1022.75 1022.84 1022.90 1022.94 1022.95 1022.94 1022.93 1022.91 1022.89 1022.86
1020.74 1020.82 1020.93 1021.05 1021.18 1021.32 1021.44 1021.56 1021.66 1021.75 1021.84 1021.91 1021.97 1022.03 1022.06 1022.08 1022.07 1022.05 1022.01 1021.97 1021.94 1021.93 1021.95 1022.01 1022.10 1022.22 1022.35 1022.48 1022.61 1022.71 1022.80 1022.85 1022.89 1022.91 1022.93 1022.94 1022.94 1022.94
1020.87 1020.97 1021.09 1021.21 1021.34 1021.47 1021.58 1021.67 1021.76 1021.83 1021.89 1021.95 1022.01 1022.05 1022.08 1022.10 1022.09 1022.07 1022.03 1021.98 1021.94 1021.92 1021.93 1021.97 1022.03 1022.12 1022.23 1022.35 1022.46 1022.56 1022.64 1022.71 1022.76 1022.80 1022.82 1022.85 1022.87 1022.88
1020.87 1020.99 1021.13 1021.26 1021.39 1021.50 1021.60 1021.67 1021.72 1021.77 1021.82 1021.86 1021.91 1021.95 1022.00 1022.02 1022.04 1022.04 1022.02 1022.00 1021.97 1021.96 1021.96 1021.99 1022.04 1022.11 1022.20 1022.29 1022.38 1022.45 1022.52 1022.57 1022.61 1022.64 1022.67 1022.69 1022.70 1022.71
1020.79 1020.95 1021.11 1021.26 1021.39 1021.50 1021.57 1021.62 1021.64 1021.66 1021.68 1021.71 1021.75 1021.80 1021.85 1021.90 1021.95 1021.98 1022.01 1022.02 1022.03 1022.04 1022.06 1022.09 1022.13 1022.19 1022.25 1022.32 1022.37 1022.42 1022.45 1022.48 1022.49 1022.49 1022.49 1022.49 1022.49 1022.48
1020.70 1020.91 1021.10 1021.28 1021.42 1021.52 1021.58 1021.60 1021.60 1021.59 1021.58 1021.58 1021.61 1021.66 1021.72 1021.79 1021.87 1021.94 1022.00 1022.06 1022.10 1022.15 1022.19 1022.23 1022.28 1022.33 1022.37 1022.41 1022.44 1022.45 1022.45 1022.43 1022.40 1022.37 1022.33 1022.30 1022.26 1022.23
1020.65 1020.91 1021.15 1021.36 1021.52 1021.62 1021.67 1021.68 1021.65 1021.61 1021.58 1021.56 1021.56 1021.60 1021.66 1021.74 1021.83 1021.92 1022.02 1022.10 1022.18 1022.25 1022.31 1022.37 1022.42 1022.47 1022.50 1022.52 1022.52 1022.50 1022.46 1022.40 1022.34 1022.26 1022.19 1022.11 1022.04 1021.98
1020.65 1020.97 1021.26 1021.50 1021.68 1021.79 1021.84 1021.84 1021.80 1021.74 1021.69 1021.64 1021.63 1021.64 1021.69 1021.76 1021.84 1021.94 1022.03 1022.13 1022.22 1022.30 1022.37 1022.44 1022.49 1022.53 1022.56 1022.56 1022.55 1022.50 1022.44 1022.35 1022.25 1022.15 1022.04 1021.94 1021.84 1021.75
1020.67 1021.03 1021.36 1021.63 1021.83 1021.96 1022.02 1022.03 1021.98 1021.92 1021.85 1021.79 1021.76 1021.75 1021.77 1021.81 1021.88 1021.95 1022.03 1022.11 1022.19 1022.26 1022.33 1022.39 1022.44 1022.48 1022.50 1022.49 1022.46 1022.41 1022.32 1022.22 1022.11 1021.98 1021.86 1021.74 1021.63 1021.52
1020.64 1021.03 1021.37 1021.66 1021.88 1022.03 1022.11 1022.12 1022.09 1022.04 1021.97 1021.91 1021.86 1021.84 1021.83 1021.85 1021.88 1021.92 1021.96 1022.01 1022.06 1022.11 1022.15 1022.20 1022.23 1022.26 1022.27 1022.26 1022.23 1022.17 1022.09 1021.99 1021.87 1021.75 1021.62 1021.50 1021.39 1021.28
1020.48 1020.87 1021.21 1021.50 1021.73 1021.88 1021.98 1022.01 1022.01 1021.98 1021.94 1021.89 1021.85 1021.81 1021.79 1021.78 1021.78 1021.78 1021.78 1021.79 1021.80 1021.81 1021.83 1021.85 1021.87 1021.89 1021.89 1021.88 1021.85 1021.80 1021.73 1021.64 1021.54 1021.43 1021.32 1021.21 1021.10 1021.00
1020.14 1020.50 1020.81 1021.08 1021.30 1021.46 1021.57 1021.64 1021.67 1021.67 1021.66 1021.65 1021.63 1021.60 1021.58 1021.56 1021.53 1021.50 1021.47 1021.44 1021.42 1021.40 1021.39 1021.39 1021.39 1021.40 1021.40 1021.39 1021.37 1021.33 1021.28 1021.21 1021.13 1021.04 1020.95 1020.86 1020.77 1020.68
1019.63 1019.94 1020.21 1020.45 1020.64 1020.80 1020.92 1021.01 1021.08 1021.13 1021.16 1021.19 1021.20 1021.20 1021.20 1021.17 1021.14 1021.10 1021.05 1021.01 1020.96 1020.92 1020.90 1020.88 1020.87 1020.87 1020.87 1020.87 1020.86 1020.83 1020.80 1020.75 1020.69 1020.62 1020.55 1020.48 1020.40 1020.32
1019.01 1019.27 1019.50 1019.70 1019.87 1020.02 1020.15 1020.26 1020.35 1020.44 1020.52 1020.59 1020.64 1020.68 1020.69 1020.69 1020.67 1020.64 1020.59 1020.54 1020.49 1020.45 1020.42 1020.41 1020.40 1020.40 1020.40 1020.41 1020.40 1020.38 1020.36 1020.32 1020.28 1020.23 1020.18 1020.11 1020.05 1019.97
1018.44 1018.65 1018.84 1019.01 1019.15 1019.29 1019.42 1019.54 1019.66 1019.78 1019.89 1019.99 1020.08 1020.15 1020.19 1020.21 1020.21 1020.20 1020.17 1020.13 1020.10 1020.07 1020.06 1020.05 1020.05 1020.06 1020.07 1020.08 1020.08 1020.06 1020.04 1020.01 1019.97 1019.92 1019.87 1019.81 1019.74 1019.66
1018.04 1018.23 1018.40 1018.55 1018.68 1018.81 1018.94 1019.06 1019.20 1019.33 1019.45 1019.57 1019.68 1019.76 1019.82 1019.86 1019.88 1019.89 1019.88 1019.87 1019.86 1019.86 1019.87 1019.88 1019.90 1019.92 1019.94 1019.95 1019.94 1019.92 1019.90 1019.86 1019.81 1019.75 1019.69 1019.62 1019.54 1019.44
1017.96 1018.15 1018.32 1018.46 1018.60 1018.72 1018.85 1018.97 1019.10 1019.23 1019.35 1019.46 1019.57 1019.65 1019.71 1019.76 1019.79 1019.80 1019.82 1019.83 1019.84 1019.87 1019.90 1019.94 1019.97 1020.00 1020.02 1020.03 1020.02 1019.99 1019.94 1019.88 1019.81 1019.73 1019.65 1019.55 1019.44 1019.32
Thickness
5709 5708 5706 5706 5706 5705 5704 5700 5693 5685 5684 5688 5689 5691 5691 5690 5688 5688 5687 5688 5688 5689 5690 5691 5692 5693 5694 5696 5698 5699 5700 5701 5702 5703 5704 5704 5704 5706
5707 5706 5705 5704 5704 5704 5703 5702 5699 5693 5685 5687 5688 5690 5690 5689 5687 5686 5685 5685 5686 5686 5686 5687 5688 5688 5689 5691 5691 5692 5693 5694 5695 5696 5696 5697 5697 5698
5706 5704 5703 5703 5701 5701 5701 5700 5698 5695 5687 5687 5689 5689 5689 5687 5686 5685 5684 5683 5683 5683 5683 5683 5683 5684 5685 5685 5685 5686 5686 5687 5688 5688 5689 5690 5690 5690
5704 5703 5702 5702 5700 5699 5698 5697 5696 5695 5690 5685 5686 5687 5686 5686 5685 5684 5683 5682 5681 5680 5680 5680 5680 5680 5680 5680 5680 5679 5679 5679 5680 5681 5682 5683 5683 5683
5703 5701 5700 5699 5697 5696 5696 5695 5694 5694 5691 5687 5684 5685 5685 5685 5683 5682 5682 5680 5679 5678 5677 5677 5676 5676 5675 5675 5674 5674 5673 5673 5673 5673 5674 5674 5675 5675
5702 5700 5698 5696 5694 5694 5693 5692 5691 5689 5688 5685 5682 5682 5681 5682 5680 5677 5676 5677 5677 5676 5675 5673 5672 5672 5671 5670 5670 5669 5668 5667 5666 5666 5666 5667 5667 5667
5699 5697 5695 5693 5692 5691 5690 5688 5687 5685 5683 5681 5679 5678 5676 5675 5674 5675 5673 5672 5672 5672 5671 5670 5669 5667 5666 5665 5665 5664 5662 5661 5660 5660 5659 5659 5659 5659
5696 5694 5693 5691 5689 5688 5687 5686 5685 5682 5679 5677 5675 5673 5672 5672 5672 5671 5669 5666 5664 5668 5666 5665 5665 5663 5662 5660 5659 5658 5657 5655 5654 5653 5652 5651 5650 5650
5694 5693 5692 5690 5687 5686 5684 5683 5682 5681 5679 5676 5672 5671 5670 5670 5668 5666 5664 5662 5660 5662 5662 5659 5660 5658 5657 5655 5653 5651 5650 5648 5646 5645 5644 5643 5642 5640
5692 5691 5689 5687 5685 5683 5682 5680 5678 5677 5676 5674 5672 5670 5668 5667 5666 5664 5662 5660 5659 5659 5657 5652 5652 5651 5651 5649 5647 5644 5642 5639 5638 5636 5635 5634 5632 5631
5689 5688 5686 5683 5683 5681 5678 5676 5674 5672 5672 5671 5669 5667 5665 5663 5661 5659 5656 5652 5650 5650 5651 5647 5645 5644 5644 5642 5639 5636 5634 5631 5629 5627 5625 5624 5622 5621
5685 5683 5682 5680 5678 5676 5673 5671 5668 5667 5667 5665 5663 5662 5660 5659 5657 5654 5650 5646 5643 5641 5643 5640 5637 5634 5632 5634 5631 5628 5625 5623 5620 5618 5616 5614 5612 5610
5680 5678 5676 5675 5673 5671 5669 5666 5664 5663 5662 5660 5658 5656 5655 5653 5651 5649 5646 5642 5637 5634 5635 5633 5628 5625 5621 5621 5621 5620 5617 5614 5611 5609 5606 5604 5601 5599
5675 5674 5672 5670 5668 5666 5663 5662 5660 5658 5655 5653 5651 5649 5647 5645 5644 5642 5640 5637 5634 5630 5629 5626 5621 5617 5612 5610 5609 5610 5608 5605 5602 5599 5597 5593 5590 5586
5670 5669 5666 5664 5662 5659 5657 5656 5653 5650 5648 5645 5643 5642 5641 5640 5638 5635 5633 5630 5627 5624 5621 5618 5614 5610 5605 5601 5599 5598 5595 5594 5592 5589 5585 5581 5577 5574
5664 5662 5661 5658 5655 5653 5651 5649 5646 5644 5642 5639 5637 5636 5635 5633 5630 5627 5623 5620 5617 5615 5614 5611 5607 5603 5597 5594 5590 5587 5583 5580 5579 5576 5573 5569 5565 5561
5659 5656 5653 5650 5648 5646 5644 5643 5641 5638 5636 5633 5631 5628 5626 5624 5621 5619 5615 5611 5607 5604 5602 5601 5598 5594 5590 5584 5579 5576 5572 5569 5566 5562 5559 5556 5553 5549
5654 5650 5647 5645 5642 5641 5638 5636 5634 5632 5630 5627 5624 5621 5618 5615 5612 5609 5606 5602 5597 5595 5592 5589 5585 5581 5577 5574 5570 5564 5560 5556 5553 5550 5545 5540 5539 5537
5646 5644 5641 5639 5637 5635 5632 5630 5627 5625 5623 5620 5617 5613 5610 5607 5603 5599 5596 5592 5588 5585 5582 5578 5572 5566 5561 5560 5559 5554 5547 5544 5540 5536 5531 5527 5525 5524
5638 5636 5635 5633 5630 5628 5625 5622 5619 5616 5613 5610 5607 5604 5601 5597 5593 5589 5585 5581 5577 5573 5569 5565 5560 5555 5550 5547 5546 5544 5537 5531 5526 5522 5519 5517 5514 5512
5630 5628 5626 5624 5622 5619 5616 5613 5610 5606 5603 5600 5596 5593 5589 5585 5581 5578 5574 5570 5565 5560 5556 5552 5549 5545 5540 5535 5531 5530 5527 5521 5515 5510 5507 5503 5500 5499
5622 5619 5617 5615 5612 5609 5606 5602 5599 5595 5592 5588 5584 5580 5576 5572 5568 5565 5560 5555 5551 5547 5544 5540 5536 5531 5525 5520 5517 5516 5513 5510 5506 5500 5495 5491 5485 5484
5612 5610 5607 5604 5601 5599 5595 5591 5588 5584 5580 5576 5572 5568 5563 5558 5554 5550 5546 5541 5537 5533 5528 5524 5521 5516 5511 5507 5503 5500 5498 5495 5492 5489 5486 5481 5477 5475